星链-31518 (STARLINK-31518 )

导读 | 星芒AI

STARLINK-31518 是 SpaceX Starlink 项目中的一颗低轨通信卫星,属于第 11 批组网发射任务。该卫星于 2021 年 10 月 31 日由猎鹰 9 号火箭送入近地轨道,旨在为全球提供高速互联网服务。Starlink 卫星采用先进推进系统和激光通信技术,具备自动避障功能,以减少与空间碎片的碰撞风险。STARLINK-31518 运行在约 550 公里高度,是 SpaceX 构建全球卫星互联网网络的重要组成部分。

基本信息
目录编号:
59219
目录名称:
STARLINK-31518
国际标识:
2024-046U
轨道中心:
EARTH
卫星名称:
星链-31518
卫星全名:
星链-31518 (STARLINK-31518 )
卫星状态:
在轨 (已飞行649 天)
发射日期:
2024-03-11 UTC
国别 :
美国 (US)
星等 :
--
轨道信息
数据来源 国际轨道数据 AOE轨道数据
星历时间 2025-12-19T19:53:32+0800
14小时前
查看轨道信息
2025-12-15T12:00:00+0800
4天前
查看轨道信息
半长轴 6853.384km 6853.384km
偏心率 0.0001066 0.0000913
轨道倾角 53.160° 53.157°
近地点辐角 87.022° 73.299°
升交点赤经 167.675° 187.785°
平近点角 273.091° 187.223°
近地点 474.516km 474.623km
远地点 475.978km 475.875km
周期 94.106分钟 94.106分钟
每日圈数 15.301895 15.301894
详细信息
固有亮度:
5
最大亮度:
0.3
卫星平台:
Starlink v2.0 mini
覆盖范围:
全球
运营商:
太空探索技术公司
运营商所在国:
美国
制造商(研发单位):
太空探索技术公司
制造商所在国:
美国
使用方式:
暂无
卫星简介
星链(Starlink)计划是由太空探索技术公司(SpaceX)提出的一个巨型低轨卫星互联网星座项目,计划在2019年至2024年间在太空搭建由约1.2万颗卫星组成的“星链”网络,其中1584颗将部署在地球上空550千米处的近地轨道,并从2020年开始工作。该卫星仍在工作。
2D轨道图
3D轨道图
轨道高度分析图
轨道倾角分析图
轨道综合分析图
查看轨道综合分析图